Meteo Giornale » Osservazioni meteo Francia » Parigi-Orly

ore: 02:30 - Osservazioni Meteo Parigi-Orly
Lat. 48° 44' N Lon. 2° 24' E Alt. 89 metri s.l.m.

sereno Europe/Paris

15 °C

Sereno

Temp. 24 Ore

9 °C

22 °C

Nord

3.7 Km/h

Dew point 10 °C

Umidità 72 %

Visibilità  10 Km

Il sole sorge alle ore 07:40

Il sole tramonta alle ore 19:43

Data e Ora Cielo e Fenomeni T °C DP °C Um. % Pres. hPa Vis. km Vento km/h
Oggi h: 02:30 sereno Sereno 15 10 72 1018 10 N 3.7
Oggi h: 02:00 sereno Sereno 16 10 67 1018 10 N 3.7
Oggi h: 01:30 sereno Sereno 16 10 67 1018 10 N 5.5
Oggi h: 01:00 sereno Sereno 16 10 67 1019 10 E 7.4
Oggi h: 00:30 sereno Sereno 16 10 67 1019 10 N 5.5
Oggi h: 00:00 sereno Sereno 16 10 67 1019 10 N 3.7
Ieri h: 23:30 sereno Sereno 17 10 63 1019 10 E 7.4
Ieri h: 23:00 sereno Sereno 17 10 63 1019 10 E/NE 7.4
Ieri h: 22:30 sereno Sereno 17 10 63 1019 10 E 7.4
Ieri h: 22:00 sereno Sereno 17 10 63 1019 10 E 11.1
Ieri h: 21:30 sereno Sereno 17 11 67 1019 10 E 11.1
Ieri h: 21:00 sereno Sereno 18 11 63 1019 10 E 13
Ieri h: 20:30 sereno Sereno 18 10 59 1019 10 E 7.4
Ieri h: 20:00 sereno Sereno 17 9 59 1019 10 N 3.7
Ieri h: 19:30 sereno Sereno 19 10 55 1019 10 N 5.5
Ieri h: 19:00 sereno Sereno 20 9 49 1019 10 N 5.5
Ieri h: 18:30 sereno Sereno 21 9 46 1019 10 N 5.5
Ieri h: 18:00 sereno Sereno 21 9 46 1019 10 E 9.3
Ieri h: 17:30 sereno Sereno 22 9 43 1019 10 E/SE 9.3
Ieri h: 17:00 sereno Sereno 22 9 43 1019 10 E/SE 9.3
Ieri h: 16:30 sereno Sereno 22 10 46 1019 10 E 9.3
Ieri h: 16:00 sereno Sereno 22 9 43 1019 10 S/SE 7.4
Ieri h: 15:30 sereno Sereno 22 10 46 1019 10 S/SE 7.4
Ieri h: 15:00 sereno Sereno 22 11 49 1019 10 E 11.1
Ieri h: 14:30 sereno Sereno 22 11 49 1020 10 SE 11.1
Ieri h: 14:00 sereno Sereno 22 12 53 1020 10 E/SE 9.3
Ieri h: 13:30 sereno Sereno 20 12 59 1020 10 E/SE 9.3
Ieri h: 13:00 sereno Sereno 20 12 59 1020 10 E/SE 7.4
Ieri h: 12:30 sereno Sereno 19 12 63 1020 10 N 5.5
Ieri h: 12:00 sereno Sereno 18 12 67 1021 10 N 5.5
Ieri h: 11:30 sereno Sereno 18 12 67 1021 10 N 3.7
Ieri h: 11:00 sereno Sereno 16 11 72 1021 10 N 5.5
Ieri h: 10:30 sereno Sereno 15 11 76 1021 10 N 5.5
Ieri h: 10:00 sereno Sereno 13 11 87 1021 10 N 3.7
Ieri h: 09:30 sereno Sereno 12 11 93 1020 10 N 0
Ieri h: 09:00 sereno Sereno 10 10 100 1020 10 N 0
Ieri h: 08:30 nebbia Nebbia a Strati 9 8 93 1020 10 N 1.8
Ieri h: 08:00 nebbia Nebbia a Strati 9 8 93 1020 10 N 0
Ieri h: 07:30 nebbia Nebbia a Strati 9 8 93 1020 10 N 0
Ieri h: 07:00 nebbia Nebbia a Strati 9 8 93 1020 10 N 0
Ieri h: 06:30 sereno Sereno 9 7 87 1020 10 N 0
Ieri h: 06:00 sereno Sereno 9 8 93 1020 10 N 0
Ieri h: 05:30 sereno Sereno 9 8 93 1020 10 N 0
Ieri h: 05:00 sereno Sereno 9 8 93 1020 10 N 0
Ieri h: 04:30 sereno Sereno 9 7 87 1020 10 N 0
Ieri h: 04:00 sereno Sereno 9 8 93 1020 10 N 0
Ieri h: 03:30 sereno Sereno 9 7 87 1020 10 N 0
Ieri h: 03:00 sereno Sereno 9 8 93 1020 10 N 0